Location: Kellogg
(38.0159°N, 90.0546°W)
Time: 16:47:22
(UTC+00:00)

Vanguard 1 Rocket - Pass Details

Date: 19 September 2024
Orbit: 650 x 4218 km, 34.3° (Epoch: 07 October)

Event Time Altitude Azimuth Distance (km) Brightness Sun altitude
Rises 15:04:12 0° 286° (WNW) 7,457 11.6 36.4°
Reaches altitude 10° 15:09:07 10° 280° (W) 6,779 11.5 37.2°
Maximum altitude 15:31:05 44° 219° (SW) 5,115 11.6 40.7°
Drops below altitude 10° 15:52:30 10° 155° (SSE) 6,549 12.7 43.8°
Sets 15:57:15 0° 149° (SSE) 7,189 12.7 44.4°
